Date String (YYYY-MM-DD hh:mm:ss) UTC,Instrument flags,Ambient pressure (hPa),Sample flow (lpm),Bypass flow (lpm),Sample temperature (°C),Ambient temperature (°C),ASC tube jacket temperature (°C),LED temperature (°C),Box temperature (°C),Sample RH (%),Span deviation,Mass concentration (μg/m³),Mass concentration (μg/m³),Mass concentration (μg/m³)
DateTimeUTC,F1_M11,P_M11,Q1_M11,Q2_M11,T1_M11,T2_M11,T3_M11,T4_M11,T5_M11,U1_M11,ZSPAN_M11,X2_M11,X0_M11,X1_M11
2022-05-04 11:00:00,,0822.1,5.00,0.00,25.0,24.2,00.0,34.0,26.7,24.4,-001.7,0007.82,0011.01,0007.45
2022-05-04 11:01:00,,0822.1,4.99,0.00,24.9,24.2,00.0,34.0,26.7,24.3,-001.3,0007.83,0011.06,0007.46
2022-05-04 11:02:00,,0822.1,5.01,0.00,24.9,24.2,00.0,34.0,26.7,24.3,-001.0,0007.85,0011.06,0007.50
2022-05-04 11:03:00,,0822.1,5.00,0.00,24.9,24.2,00.0,34.0,26.7,24.3,-001.1,0007.89,0011.14,0007.54
2022-05-04 11:04:00,,0822.1,4.99,0.00,24.9,24.2,00.0,34.0,26.7,24.2,-000.8,0007.92,0011.15,0007.57
2022-05-04 11:05:00,,0822.1,5.02,0.00,24.9,24.2,00.0,34.0,26.7,24.2,-000.3,0007.94,0011.15,0007.60
2022-05-04 11:06:00,,0822.1,5.00,0.00,24.9,24.2,00.0,34.0,26.7,24.2,-000.3,0007.98,0011.35,0007.62
2022-05-04 11:07:00,,0822.1,5.00,0.00,24.9,24.1,00.0,34.0,26.7,24.3,-001.0,0008.04,0011.46,0007.66
2022-05-04 11:08:00,,0822.1,5.01,0.00,24.9,24.1,00.0,33.9,26.7,24.5,-001.6,0008.08,0011.53,0007.69
2022-05-04 11:09:00,,0822.2,4.99,0.00,24.9,24.1,00.0,33.9,26.7,25.9,-001.3,0008.09,0011.22,0007.73
2022-05-04 11:10:00,,0822.2,5.01,0.00,24.9,24.1,00.0,33.9,26.7,25.5,-001.8,0008.09,0010.70,0007.75
2022-05-04 11:11:00,,0822.2,5.00,0.00,24.9,24.2,00.0,33.9,26.7,24.8,-001.7,0008.14,0010.73,0007.79
2022-05-04 11:12:00,,0822.1,4.99,0.00,24.9,24.1,00.0,33.9,26.7,24.6,-002.0,0008.18,0010.72,0007.84
2022-05-04 11:13:00,,0822.2,5.00,0.00,24.9,24.1,00.0,33.9,26.7,24.5,-002.3,0008.22,0011.07,0007.87
2022-05-04 11:14:00,,0822.2,5.00,0.00,24.8,24.1,00.0,33.9,26.6,24.5,-002.5,0008.26,0011.36,0007.90
2022-05-04 11:15:00,,0822.2,5.01,0.00,24.8,24.1,00.0,33.9,26.6,24.5,-002.7,0008.31,0011.40,0007.94
2022-05-04 11:16:00,,0822.2,4.99,0.00,24.8,24.1,00.0,33.9,26.6,24.5,-003.0,0008.36,0011.51,0007.97
2022-05-04 11:17:00,,0822.1,5.01,0.00,24.8,24.1,00.0,33.9,26.6,24.5,-003.0,0008.40,0011.47,0008.02
2022-05-04 11:18:00,,0822.1,4.99,0.00,24.8,24.1,00.0,33.9,26.6,24.4,-002.8,0008.40,0011.81,0008.04
2022-05-04 11:19:00,,0822.1,5.01,0.00,24.8,24.1,00.0,33.9,26.6,24.4,-002.8,0008.46,0012.23,0008.07
2022-05-04 11:20:00,,0822.1,4.99,0.00,24.8,24.1,00.0,33.9,26.6,24.4,-003.0,0008.52,0012.39,0008.12
2022-05-04 11:21:00,,0822.1,5.01,0.00,24.8,24.1,00.0,33.9,26.6,24.4,-003.1,0008.57,0012.77,0008.15
2022-05-04 11:22:00,,0822.1,4.99,0.00,24.8,24.1,00.0,33.8,26.6,24.4,-003.1,0008.60,0013.14,0008.17
2022-05-04 11:23:00,,0822.1,5.00,0.00,24.8,24.0,00.0,33.8,26.6,24.4,-003.2,0008.61,0013.16,0008.19
2022-05-04 11:24:00,,0822.1,5.00,0.00,24.8,24.0,00.0,33.8,26.6,24.4,-003.1,0008.64,0012.89,0008.21
2022-05-04 11:25:00,,0822.1,4.98,0.00,24.8,24.0,00.0,33.8,26.6,24.5,-002.9,0008.64,0012.54,0008.24
2022-05-04 11:26:00,,0822.1,5.00,0.00,24.8,24.1,00.0,33.8,26.6,24.4,-003.0,0008.62,0012.47,0008.26
2022-05-04 11:27:00,,0822.1,4.99,0.00,24.8,24.1,00.0,33.8,26.6,24.4,-002.7,0008.62,0012.40,0008.28
2022-05-04 11:28:00,,0822.1,5.01,0.00,24.8,24.1,00.0,33.8,26.6,24.4,-002.7,0008.64,0012.43,0008.30
2022-05-04 11:29:00,,0822.1,4.99,0.00,24.8,24.1,00.0,33.8,26.6,24.5,-002.8,0008.69,0012.13,0008.35
2022-05-04 11:30:00,,0822.1,4.99,0.00,24.8,24.1,00.0,33.8,26.6,24.4,-002.4,0008.67,0011.70,0008.36
2022-05-04 11:31:00,,0822.1,5.02,0.00,24.8,24.1,00.0,33.8,26.6,24.4,-002.3,0008.67,0011.61,0008.37
2022-05-04 11:32:00,,0822.1,4.99,0.00,24.8,24.1,00.0,33.8,26.6,24.4,-002.2,0008.71,0011.37,0008.42
2022-05-04 11:33:00,,0822.1,5.01,0.00,24.8,24.1,00.0,33.8,26.6,24.4,-002.2,0008.73,0011.10,0008.44
2022-05-04 11:34:00,,0822.1,4.99,0.00,24.8,24.1,00.0,33.8,26.6,24.4,-002.1,0008.74,0011.56,0008.46
2022-05-04 11:35:00,,0822.1,5.01,0.00,24.8,24.1,00.0,33.8,26.6,24.4,-002.2,0008.75,0011.71,0008.46
2022-05-04 11:36:00,,0822.1,5.00,0.00,24.8,24.1,00.0,33.8,26.6,24.4,-001.9,0008.79,0011.81,0008.46
2022-05-04 11:37:00,,0822.1,5.00,0.00,24.8,24.1,00.0,33.8,26.6,24.4,-001.5,0008.78,0011.87,0008.44
2022-05-04 11:38:00,,0822.0,5.00,0.00,24.7,24.0,00.0,33.8,26.5,24.4,-001.8,0008.76,0011.86,0008.41
2022-05-04 11:39:00,,0822.1,4.99,0.00,24.7,24.0,00.0,33.8,26.5,24.3,-001.6,0008.71,0011.74,0008.38
2022-05-04 11:40:00,,0822.0,5.01,0.00,24.7,24.0,00.0,33.7,26.5,24.3,-001.2,0008.66,0011.67,0008.33
2022-05-04 11:41:00,,0822.0,4.99,0.00,24.7,24.0,00.0,33.7,26.5,24.4,-001.6,0008.64,0011.64,0008.30
2022-05-04 11:42:00,,0822.0,5.00,0.00,24.7,24.0,00.0,33.7,26.5,24.4,-001.8,0008.60,0011.61,0008.27
2022-05-04 11:43:00,,0822.0,5.00,0.00,24.7,24.0,00.0,33.7,26.5,24.4,-001.6,0008.53,0011.52,0008.21
2022-05-04 11:44:00,,0821.9,5.01,0.00,24.7,23.9,00.0,33.7,26.5,24.4,-001.5,0008.52,0011.47,0008.19
2022-05-04 11:45:00,,0821.9,4.99,0.00,24.7,23.9,00.0,33.7,26.5,24.4,-001.6,0008.49,0010.98,0008.16
2022-05-04 11:46:00,,0821.9,4.99,0.00,24.7,23.9,00.0,33.7,26.5,24.4,-001.5,0008.43,0010.77,0008.13
2022-05-04 11:47:00,,0822.0,5.01,0.00,24.7,23.9,00.0,33.7,26.4,24.4,-001.9,0008.36,0010.66,0008.08
2022-05-04 11:48:00,,0821.9,4.99,0.00,24.7,23.9,00.0,33.7,26.4,24.5,-002.1,0008.34,0010.59,0008.07
2022-05-04 11:49:00,,0822.0,5.01,0.00,24.6,23.9,00.0,33.7,26.4,24.5,-002.1,0008.33,0010.57,0008.05
2022-05-04 11:50:00,,0822.0,4.99,0.00,24.6,23.9,00.0,33.7,26.4,24.5,-002.1,0008.29,0010.52,0008.04
2022-05-04 11:51:00,,0822.1,5.00,0.00,24.6,23.9,00.0,33.7,26.4,24.5,-002.4,0008.27,0010.49,0008.02
2022-05-04 11:52:00,,0822.1,5.00,0.00,24.6,23.9,00.0,33.7,26.4,24.6,-002.3,0008.26,0010.66,0008.01
2022-05-04 11:53:00,,0822.1,4.99,0.00,24.6,23.9,00.0,33.7,26.3,24.5,-001.8,0008.26,0010.66,0008.00
2022-05-04 11:54:00,,0822.1,5.02,0.00,24.6,23.9,00.0,33.6,26.4,24.5,-001.8,0008.30,0010.76,0008.01
2022-05-04 11:55:00,,0822.1,4.99,0.00,24.6,23.8,00.0,33.6,26.4,24.6,-001.8,0008.31,0010.77,0008.00
2022-05-04 11:56:00,,0822.1,5.01,0.00,24.6,23.8,00.0,33.6,26.4,24.6,-001.5,0008.33,0010.79,0008.00
2022-05-04 11:57:00,,0822.1,4.99,0.00,24.6,23.8,00.0,33.6,26.4,24.7,-001.5,0008.33,0010.82,0008.00
2022-05-04 11:58:00,,0822.1,5.00,0.00,24.6,23.8,00.0,33.6,26.4,25.3,-001.7,0008.34,0010.82,0008.01
2022-05-04 11:59:00,,0822.1,4.99,0.00,24.6,23.9,00.0,33.6,26.4,26.3,-001.7,0008.32,0010.81,0007.99
